Tracking 18987 objects as of 17-Feb-2018
HD Live streaming from Space Station
objects crossing your sky now

NOAA 16 DEB

Track NOAA 16 DEB now!
10-day predictions


NORAD ID: 41227
Int'l Code: 2000-055EG
Perigee: 805.7 km
Apogee: 859.7 km
Inclination: 99.0 °
Period: 101.4 minutes
Semi major axis: 7203 km
RCS: Unknown
Launch date: September 21, 2000
Source: United States (US)
Launch site: AIR FORCE WESTERN TEST RANGE (AFWTR)

Note: This is SATELLITE DEBRIS
aabbcc
Your satellite tracking list
Your tracking list is empty




NASA's NSSDC Master Catalog

Two Line Element Set (TLE):
1 41227U 00055EG  18047.11121087  .00000796  00000-0  39401-3 0  9999
2 41227  99.0135 143.5140 0037507 284.2718  75.4293 14.19942889112725
Source of the keplerian elements: AFSPC